Regional Weather Roundup
Issued by NWS

Home | Current Version | Previous Version | Text Only | Print | Product List | Glossary Off
Versions: 1 2 3 4 5 6 7 8 9 10 11 12 13 14 15 16 17 18 19 20 21 22 23 24 25 26 27 28 29 30 31 32 33 34 35 36 37 38 39 40 41 42 43 44 45 46 47 48 49 50

853
ASUS43 KMKX 262111
RWRWI

WISCONSIN REGIONAL WEATHER ROUNDUP
NATIONAL WEATHER SERVICE MILWAUKEE/SULLIVAN WI
400 PM CDT FRI MAY 26 2017

NOTE: "FAIR" INDICATES FEW OR NO CLOUDS BELOW 12,000 FEET WITH NO
SIGNIFICANT WEATHER AND/OR OBSTRUCTIONS TO VISIBILITY.

WIZ001-002-006>008-014>016-023>028-262200-
NORTHWEST WISCONSIN

CITY           SKY/WX    TMP DP  RH WIND       PRES   REMARKS
SUPERIOR ARPT  NOT AVBL
ASHLAND        CLOUDY    69  55  60 S12       29.73F
HAYWARD        MOSUNNY   73  51  46 SW13G24   29.74F
SIREN          MOSUNNY   76  55  48 S10G17    29.72F
CUMBERLAND     CLOUDY    72  55  56 S12       29.75S
RICE LAKE      PTSUNNY   72  53  51 S13       29.76F
CHETEK         CLOUDY    74  56  54 S8        29.75F
LADYSMITH      CLOUDY    69  55  61 S7        29.78F
EAU CLAIRE     CLOUDY    71  55  56 S14G23    29.76S
MENOMONIE      PTSUNNY   72  56  57 S13       29.76S
NEW RICHMOND   MOSUNNY   74  56  52 S13       29.75S
OSCEOLA        PTSUNNY   76  58  52 S8        29.75F
$$

WIZ003>005-009-010-017-018-262200-
NORTH CENTRAL WISCONSIN

CITY           SKY/WX    TMP DP  RH WIND       PRES   REMARKS
MANITOWISH WTR CLOUDY    67  55  65 S12G17    29.79F
ARBOR VITAE    CLOUDY    67  55  64 S9        29.80S
WOODRUFF       CLOUDY    67  55  64 S9        29.80S
RHINELANDER    CLOUDY    69  52  54 S9        29.81F
EAGLE RIVER    PTSUNNY   64  56  75 CALM      29.80F
LAND O LAKES   PTSUNNY   69  53  58 S8        29.82S
PHILLIPS       CLOUDY    67  55  66 S8        29.78F
TOMAHAWK       CLOUDY    69  53  56 S5        29.80S
MEDFORD        CLOUDY    67  56  65 S9        29.79F
MERRILL        CLOUDY    71  55  56 SE8       29.80F
$$

WIZ029-030-035-036-043>047-262200-
CENTRAL WISCONSIN

CITY           SKY/WX    TMP DP  RH WIND       PRES   REMARKS
WAUSAU         CLOUDY    70  55  59 S9        29.79F
MOSINEE        PTSUNNY   68  55  64 S10       29.82F
MARSHFIELD     PTSUNNY   72  51  47 S10G22    29.79S
STEVENS POINT  MOSUNNY   71  52  52 S12G17    29.81F
WAUPACA        CLOUDY    73  57  57 E6        29.81F
WAUTOMA        CLOUDY    71  55  56 S9        29.82S
WISC RAPIDS    CLOUDY    73  54  51 SW12      29.81F
CAMP DOUGLAS   PTSUNNY   70  55  59 S8        29.80F
$$

WIZ011>013-019>022-031-037>040-048>050-262200-
NORTHEAST WISCONSIN

CITY           SKY/WX    TMP DP  RH WIND       PRES   REMARKS
ANTIGO         CLOUDY    70  55  60 S8        29.82F
SHAWANO        CLOUDY    74  53  49 SW7       29.82S
OCONTO         CLOUDY    65  54  65 SE9       29.83F
STURGEON BAY   CLOUDY    64  52  64 S7        29.85F
GREEN BAY      MOSUNNY   69  59  70 S12       29.83S
MANITOWOC      PTSUNNY   61  52  72 S6        29.86F
APPLETON       PTSUNNY   68  54  60 SE8       29.82F
CLINTONVILLE   CLOUDY    72  54  53 S9        29.82S
OSHKOSH        CLOUDY    69  56  62 S10       29.81F
$$

WIZ032>034-041-042-053>061-262200-
SOUTHWEST WISCONSIN

CITY           SKY/WX    TMP DP  RH WIND       PRES   REMARKS
LA CROSSE      MOSUNNY   72  57  59 S12       29.79S
SPARTA         PTSUNNY   70  53  54 S8        29.81F
VIROQUA        CLOUDY    67  55  64 SW10      29.82S
BOSCOBEL       CLOUDY    68  57  68 VRB6      29.82F
PRAIRIE DU CHI CLOUDY    66  55  67 CALM      29.81S
PLATTEVILLE    CLOUDY    64  62  92 E8        29.81F
$$

WIZ056-057-062-063-064-067-068-262200-
SOUTH CENTRAL WISCONSIN

CITY           SKY/WX    TMP DP  RH WIND       PRES   REMARKS
REEDSBURG      CLOUDY    63  55  75 S9        29.82F
BARABOO/DELLS  CLOUDY    63  54  74 S6        29.82S
LONE ROCK      CLOUDY    63  55  75 S5        29.82F
MINERAL POINT  CLOUDY    63  59  88 E5        29.82F
MADISON        LGT RAIN  62  60  93 CALM      29.82S FOG
MIDDLETON      CLOUDY    60  58  91 CALM      29.84S
WATERTOWN      CLOUDY    64  58  79 SE6       29.83S
MONROE         DRIZZLE   59  55  88 SE6       29.81F
JANESVILLE     RAIN      63  63 100 E13       29.83S FOG
$$

WIZ051-052-058>065-066-070>072-262200-
SOUTHEAST WISCONSIN

CITY           SKY/WX    TMP DP  RH WIND       PRES   REMARKS
MILWAUKEE      LGT RAIN  61  54  77 SE6       29.86S
WAUKESHA       MOSUNNY   63  52  67 SE7       29.85F
MILWAUKEE/TIMM PTSUNNY   63  48  59 E6        29.85F
RACINE         CLOUDY    60  51  72 SE5       29.87S
KENOSHA        LGT RAIN  60  52  74 E7        29.85F
FOND DU LAC    CLOUDY    69  53  56 SE9       29.83F
SHEBOYGAN      CLOUDY    63  55  75 S6        29.85F
WEST BEND      CLOUDY    64  54  68 S3        29.85S
JUNEAU         CLOUDY    67  56  68 SE7       29.84F
$$

LSZ147-162-262200-
LAKE SUPERIOR

STATION/POSITION TIME  TEMP    WIND        PRES    WAVE
                       AIR SEA DIR/SP/G            HT/PER
                 (UTC) (F)     (DEG/KT/KT) (MB)    (FT/S)
W MID LAKE BUOY  1950   40 37  350/  6/  8 1008.5F   0
DEVILS ISLAND    2100   54     140/  6/  7 1007.0F
PORT WING        1940   43      20/ 13/ 16 1006.4F
SAXON HARBOR     2040   53     190/  2/  7 1006.8F
$$

LMZ867-665-643>646-262200-
LAKE MICHIGAN

STATION/POSITION TIME  TEMP    WIND        PRES    WAVE
                       AIR SEA DIR/SP/G            HT/PER
                 (UTC) (F)     (DEG/KT/KT) (MB)    (FT/S)
CHAMBERS ISLAND  2040   60     340/  4/  4 1010.5S
N MID LAKE BUOY  2050   43 43  220/  6/  6 1011.8F   0
NORTHPORT PIER   2040   50     150/ 10/ 11 1010.8S
KEWAUNEE LAKESHO 2048   50     100/  2/  4 1010.7F
SHEBOYGAN LAKESH 2100   54     170/ 10/ 10 1010.8F
PORT WASHINGTON  2030   52     120/  2/  3 1011.9F
ATWATER BUOY     2039   47      70/  4/  4 1011.1F
MILWAUKEE LAKESH 2050   49      60/  2/  3   N/A
S MID LAKE BUOY  1950   49 48   20/  2/  2 1011.4F   1
KENOSHA   LAKESH 2100   50      CALM  /  2 1011.2
$$

TC  - TEMPERATURE IN CELSIUS
VSB - VISIBILITY IN STATUTE MILES
WCI - WIND CHILL INDEX
HX  - HEAT INDEX





USA.gov is the U.S. government's official web portal to all federal, state and local government web resources and services.